This is the latest recevied weather packets stored in our database for station/object KB1JL-13. If no packets are shown the sender has not sent any weather packets the latest 1 day(s).
| Time | Temp. | Humidity | Pressure | Rain* | Wind** | Luminosity | Snow |
|---|---|---|---|---|---|---|---|
| 1778081423 | 16.67° C | 85% | 1021.6 hPa | 0 mm | - | 173 W/m² | - |
| 1778081120 | 16.67° C | 85% | 1021.6 hPa | 0 mm | - | 243 W/m² | - |
| 1778079606 | 16.67° C | 85% | 1021.6 hPa | 0 mm | - | 157 W/m² | - |
| 1778079000 | 16.67° C | 85% | 1021.6 hPa | 0 mm | - | 213 W/m² | - |
| 1778077790 | 17.22° C | 83% | 1021.6 hPa | 0 mm | - | 325 W/m² | - |
| 1778076581 | 18.33° C | 82% | 1021.6 hPa | 0 mm | - | 614 W/m² | - |
| 1778075672 | 17.22° C | 84% | 1021.9 hPa | 0 mm | - | 390 W/m² | - |
| 1778074761 | 16.67° C | 85% | 1021.6 hPa | 0 mm | - | 313 W/m² | - |
| 1778071128 | 16.67° C | 86% | 1021.9 hPa | 0 mm | - | 200 W/m² | - |
| 1778070826 | 16.67° C | 88% | 1022.2 hPa | 0 mm | - | 278 W/m² | - |
| 1778070523 | 16.11° C | 88% | 1022.6 hPa | 0 mm | - | 279 W/m² | - |
| 1778069918 | 15.56° C | 89% | 1022.2 hPa | 0 mm | - | 221 W/m² | - |
| 1778067800 | 14.44° C | 93% | 1022.2 hPa | 0 mm | - | 75 W/m² | - |
| 1778067498 | 14.44° C | 93% | 1022.2 hPa | 0 mm | - | 123 W/m² | - |
| 1778066892 | 13.89° C | 95% | 1022.2 hPa | 0 mm | - | 127 W/m² | - |
| 1778065682 | 13.33° C | 96% | 1022.2 hPa | 0 mm | - | 78 W/m² | - |
| 1778065075 | 13.33° C | 96% | 1022.2 hPa | 0 mm | - | 63 W/m² | - |
| 1778064772 | 13.33° C | 97% | 1021.9 hPa | 0 mm | - | 52 W/m² | - |
| 1778064470 | 12.78° C | 97% | 1022.2 hPa | 0 mm | - | 50 W/m² | - |
| 1778063562 | 12.78° C | 97% | 1022.2 hPa | 0 mm | - | 37 W/m² | - |
| 1778062654 | 12.78° C | 97% | 1021.9 hPa | 0 mm | - | 20 W/m² | - |
| 1778061141 | 12.78° C | 97% | 1021.9 hPa | 0 mm | - | 1 W/m² | - |
| 1778060838 | 12.78° C | 97% | 1022.2 hPa | 0 mm | - | 1 W/m² | - |
| 1778060536 | 12.78° C | 97% | 1021.9 hPa | 0 mm | - | 0 W/m² | - |
| 1778060235 | 12.78° C | 97% | 1021.9 hPa | 0 mm | - | 0 W/m² | - |
* Rain latest hour (hover to see other rain measurements)
** Current wind speed in m/s (hover to see current wind gust speed)